Location: ??????????
(42.1626°N, 44.1160°E)
Time: 14:07:27
(UTC+00:00)

Cosmos 1500 - Pass Details

Date: 03 March 2021
Orbit: 499 x 517 km, 82.5° (Epoch: 21 April)

Event Time Altitude Azimuth Distance (km) Brightness Sun altitude
Rises 15:35:10 0° 166° (SSE) 2,577 6.6 -8.1°
Reaches altitude 10° 15:37:24 10° 156° (SSE) 1,698 5.6 -8.5°
Maximum altitude 15:40:45 33° 92° (E) 861 3.8 -9.1°
Drops below altitude 10° 15:44:08 10° 27° (NNE) 1,711 5.6 -9.7°
Sets 15:46:24 0° 18° (NNE) 2,601 6.6 -10.1°
